Location: Beetenbrück
(52.8113°N, 9.5946°E)
Time: 22:44:45
(UTC+00:00)

Cosmos 2123 Rocket - Pass Details

Date: 14 April 2026
Orbit: 961 x 990 km, 82.9° (Epoch: 12 May)

Event Time Altitude Azimuth Distance (km) Brightness Sun altitude
Rises 21:24:25 0° 347° (NNW) 3,680 8.3 -22.7°
Reaches altitude 10° 21:26:58 10° 344° (NNW) 2,733 7.4 -22.9°
Maximum altitude 21:33:04 58° 267° (W) 1,137 4.4 -23.3°
Enters shadow 21:35:51 32° 204° (SSW) 1,607 4.8 -23.6°
